SCP
1 1 1 1 0 0 0 0 0 0 0 0 0 0 0 0 0 0 0 1 1 1 1 1 2 3 3 2 2 2 2 2 3 3 2 2 2 2 1 1 1 1 1 1 1 1 1 1 1
1 1 1 1 0 0 0 0 0 0 0 0 0 0 0 0 0 0 0 1 1 1 1 1 2 3 3 3 2 2 2 3 3 3 2 2 2 2 1 1 1 1 1 1 1 1 1 1 1
1 1 1 1 0 0 0 0 0 0 0 0 0 1 1 0 0 0 0 1 1 1 1 1 2 3 3 3 2 3 3 3 3 3 2 2 2 2 1 1 1 1 1 1 1 1 1 1 1
1 1 1 0 0 0 0 0 0 0 0 0 1 1 1 0 0 0 0 0 1 1 1 1 1 2 2 3 3 3 3 3 3 3 2 2 2 2 1 1 1 1 1 1 1 1 1 1 1
1 0 0 0 0 0 0 0 0 0 0 0 1 1 1 0 0 0 0 0 0 0 1 1 1 1 2 2 2 2 2 2 3 3 2 2 2 2 1 1 1 1 1 1 1 1 1 1 1
1 0 0 0 0 0 0 0 0 0 0 0 1 1 1 0 0 0 0 0 0 0 0 1 1 1 1 1 1 1 1 2 2 2 2 2 1 1 1 1 1 1 1 1 1 1 1 1 1
1 1 1 1 1 0 0 0 0 0 0 0 1 1 0 0 0 1 1 0 0 0 0 0 1 0 0 1 1 1 1 1 2 2 2 1 1 1 1 1 1 1 1 1 1 1 1 1 1
1 1 1 1 1 0 0 0 0 0 0 0 1 1 0 0 0 1 1 0 0 0 0 0 0 0 0 0 1 1 1 1 1 2 2 2 1 1 1 1 1 1 1 1 1 1 1 1 1
1 1 1 1 1 0 0 0 1 1 1 1 1 1 1 0 0 1 1 1 1 1 1 0 0 0 0 0 1 1 1 1 1 2 2 1 1 1 1 1 1 1 1 1 1 1 1 1 1
1 1 1 0 0 0 0 1 1 1 1 1 1 1 1 1 1 1 1 1 1 1 1 0 0 0 0 0 0 1 1 1 1 1 1 1 1 1 1 1 1 1 1 1 1 1 1 1 1
1 1 1 0 0 0 0 1 1 1 1 1 1 1 1 1 1 1 1 1 1 1 1 0 0 0 0 0 0 0 1 1 1 1 1 1 1 1 1 1 1 0 0 0 1 1 1 1 1
1 1 0 0 0 0 0 0 1 1 1 1 1 1 1 1 1 1 1 1 1 1 0 0 0 0 0 0 0 1 1 1 1 1 1 1 1 1 1 1 1 0 0 0 0 1 1 1 1
1 0 0 0 0 0 1 0 0 0 1 1 1 1 1 1 1 1 0 1 1 1 0 0 0 0 0 0 0 0 1 1 1 1 0 0 0 0 0 1 0 0 0 0 0 0 0 1 1
0 0 0 0 0 0 0 0 0 0 1 1 1 1 1 1 1 1 0 1 1 1 0 0 0 0 0 0 0 0 0 0 0 0 0 0 0 0 0 0 0 0 0 0 0 0 0 0 0
0 0 0 0 0 0 0 0 0 1 1 1 1 1 0 0 0 0 0 1 1 1 1 1 1 1 1 0 0 0 0 0 0 0 0 0 0 0 0 0 0 0 0 0 0 0 0 0 0
0 0 0 0 0 0 0 0 1 1 1 1 1 0 0 0 0 0 0 1 1 1 1 1 1 1 1 1 0 0 0 0 0 0 0 0 0 0 0 1 1 1 1 0 0 0 0 0 0
0 0 0 0 0 0 0 1 1 1 1 1 1 1 1 1 1 1 1 1 1 1 1 1 1 1 1 1 1 0 0 0 0 0 0 0 0 0 1 1 1 1 1 0 0 0 0 0 0
0 0 0 0 0 0 1 1 1 1 1 1 1 1 1 1 1 1 1 1 1 1 1 2 2 2 1 1 1 1 1 0 0 0 0 0 1 1 1 1 1 1 0 0 0 0 0 0 0
0 0 0 0 0 0 1 1 1 1 1 1 1 1 1 1 1 1 1 1 1 1 2 3 3 3 2 2 2 2 1 1 1 1 1 1 1 1 1 1 1 0 0 0 0 0 0 0 0
0 0 0 0 0 0 1 1 1 1 1 1 1 1 1 1 1 2 2 2 2 2 3 3 4 3 3 3 3 2 2 1 1 2 2 2 1 1 1 1 1 0 0 0 0 0 0 0 0
0 0 0 0 0 0 1 1 1 1 1 1 1 1 1 1 1 2 2 2 2 2 2 3 3 3 4 3 3 2 1 1 1 2 2 2 2 2 2 1 1 1 1 1 1 0 0 0 0
0 0 0 0 0 0 1 1 2 1 1 1 1 1 1 1 1 2 3 3 2 2 2 2 3 3 4 3 2 1 1 1 1 2 3 3 3 3 2 1 1 1 1 1 1 1 1 1 1
0 0 0 0 0 0 1 1 1 1 1 1 1 1 1 1 1 1 2 3 2 2 1 1 2 2 3 3 2 1 1 1 1 2 3 3 4 3 2 1 1 1 1 1 1 1 1 1 1
0 0 0 0 0 0 0 1 1 1 1 1 1 1 1 1 1 1 1 2 2 2 2 2 2 2 2 2 2 2 2 2 2 3 3 3 3 2 1 1 1 1 1 1 1 1 1 1 1
0 0 0 0 0 0 0 0 0 0 0 1 1 1 1 1 1 1 1 2 2 3 2 2 2 2 2 2 2 3 3 3 3 3 3 3 2 1 1 1 1 1 1 1 1 1 1 1 1
0 0 0 0 0 0 0 0 0 0 0 1 1 2 2 2 1 1 1 2 3 3 3 2 2 2 2 2 2 2 3 3 3 4 3 3 2 1 1 1 1 1 1 1 1 1 1 1 1
0 0 0 0 0 0 1 0 0 0 0 1 2 2 2 2 2 2 1 2 3 4 3 2 2 2 2 1 1 1 2 2 3 3 3 3 2 2 2 2 2 1 1 1 1 1 1 1 1
0 0 0 0 0 0 0 0 0 0 0 1 2 2 1 1 2 3 2 2 3 4 3 2 1 1 1 1 1 1 1 1 2 2 3 3 2 2 2 2 2 2 2 1 1 1 1 0 0
0 0 0 0 0 0 0 0 0 0 0 1 2 2 1 1 2 3 3 3 3 4 3 2 2 1 1 2 2 1 1 1 1 1 1 2 2 2 3 3 3 2 2 2 1 1 1 1 0
0 0 0 0 0 0 0 0 0 0 0 1 2 2 2 1 2 3 3 3 3 4 4 3 2 2 2 2 2 1 1 1 1 1 1 1 2 2 3 3 3 3 3 2 2 1 1 1 1
Wind_Speed
6 4 2 0 3 4 3 3 1 2 3 3 4 6 5 3 2 1 1 1 2 2 2 3 5 6 7 8 8 10 11 11 12 12 12 12 13 13 13 13 13 13 13 13 13 13 13 12 12
4 4 1 2 4 3 3 2 2 2 4 4 4 5 5 4 2 2 1 1 3 3 2 3 5 6 7 8 9 9 10 11 11 12 12 12 12 12 12 12 13 13 13 13 13 12 12 11 11
5 3 1 3 3 2 1 1 3 4 4 2 4 4 4 2 2 1 1 3 3 3 2 3 5 6 7 8 8 9 9 10 10 11 11 11 12 12 12 12 12 13 13 13 12 12 12 11 11
2 1 2 4 2 1 2 2 3 4 3 5 4 4 3 3 2 2 3 4 4 3 2 3 6 6 7 8 8 8 9 9 10 10 10 10 10 11 11 11 11 12 12 12 12 12 12 11 10
1 2 4 4 3 2 1 3 3 3 3 4 4 4 3 3 4 5 4 4 3 2 2 2 5 6 6 7 7 7 8 8 8 8 9 9 9 9 9 9 10 11 11 12 12 11 11 10 9
3 3 4 2 3 2 1 2 4 5 4 3 4 3 2 2 4 4 4 3 3 3 2 1 3 5 6 7 7 7 7 7 7 7 8 8 8 9 8 8 9 9 10 10 10 10 10 9 8
2 3 1 0 1 1 1 2 4 5 4 3 3 4 1 1 2 4 4 4 3 3 2 2 1 2 5 6 6 6 6 7 7 7 7 7 7 8 8 8 8 8 9 9 9 9 8 8 7
3 3 2 1 0 1 1 2 3 4 4 4 4 5 3 3 4 5 5 4 4 3 3 3 3 3 3 3 5 6 6 6 6 6 6 6 6 6 6 6 7 7 8 8 7 7 7 7 6
2 4 0 2 2 2 2 3 2 3 5 3 3 3 4 8 7 6 5 4 3 3 3 3 4 3 2 2 3 4 4 5 5 5 6 5 3 2 3 5 6 7 7 6 6 6 6 5 5
3 2 4 3 3 3 3 4 4 4 4 3 5 6 9 9 7 6 4 3 1 1 2 3 3 3 2 2 3 2 2 3 3 3 3 2 2 2 3 3 4 5 5 4 4 4 4 3 2
3 4 3 2 2 3 3 3 3 6 2 4 7 10 9 8 6 5 4 3 2 1 1 1 1 2 2 2 2 2 2 2 2 3 3 3 3 2 2 1 2 2 2 2 2 2 2 2 2
2 4 2 1 2 3 4 3 3 3 3 6 10 11 10 9 7 6 5 3 2 2 1 1 2 2 2 2 2 2 2 2 2 2 2 2 2 2 1 1 2 2 1 1 1 1 2 2 2
2 2 0 1 3 4 5 3 3 2 6 10 11 10 9 8 6 4 4 3 2 2 2 2 2 2 2 2 1 2 1 1 1 2 1 2 2 1 1 1 1 1 1 1 2 2 2 2 2
1 0 1 1 3 3 5 3 3 3 8 10 10 8 7 7 6 4 4 3 3 3 2 2 2 2 3 2 1 1 1 1 1 1 1 2 2 1 1 1 1 1 1 1 2 2 2 1 1
1 3 4 2 2 2 6 3 1 5 9 9 8 7 6 5 5 5 5 5 4 3 3 3 3 2 3 2 1 1 1 1 1 1 1 1 2 2 2 1 1 1 1 2 2 2 2 1 1
3 4 2 3 2 2 5 2 1 6 9 7 6 6 5 4 5 4 5 4 4 3 3 2 3 3 2 2 2 1 1 1 1 1 1 1 2 2 2 2 1 1 2 2 2 2 2 1 1
4 2 1 3 1 3 3 3 2 6 8 7 6 6 5 4 4 4 5 5 4 4 4 3 3 4 3 2 2 2 1 1 1 1 0 0 1 2 2 2 1 2 2 2 2 1 2 1 1
2 1 2 3 2 3 2 2 3 6 7 6 6 6 5 6 6 5 5 5 5 4 3 3 3 3 3 3 2 2 2 1 1 0 0 1 1 2 2 2 2 2 2 1 1 2 2 1 1
3 2 3 3 1 3 3 2 3 6 6 6 6 6 6 6 4 4 4 5 4 4 4 3 3 3 3 2 2 1 1 0 0 0 0 0 1 1 2 2 2 2 2 1 2 2 2 1 1
2 1 2 3 2 3 2 1 2 5 7 8 8 8 8 6 4 5 5 5 5 5 5 4 4 3 3 2 2 2 2 1 1 0 1 0 1 2 2 2 2 2 2 2 2 2 1 0 1
1 3 3 2 2 4 3 3 2 2 2 3 4 5 6 8 8 6 6 6 6 6 7 6 5 4 4 3 2 2 2 1 1 1 1 0 0 1 1 2 2 2 2 2 2 2 2 1 0
3 3 3 1 3 1 1 2 5 3 2 4 6 6 6 7 7 7 7 6 7 7 6 5 5 5 4 4 3 3 2 1 1 1 0 1 0 0 1 1 2 2 2 2 2 2 2 2 2
4 1 3 2 3 2 2 1 7 1 4 7 8 8 8 8 8 8 9 8 7 6 5 5 4 3 3 4 4 4 2 2 1 0 0 0 1 0 1 1 1 1 1 2 2 2 2 2 2
3 5 6 6 5 1 2 2 6 4 6 5 7 8 7 7 8 8 7 6 5 5 5 5 5 4 4 4 4 5 4 3 2 1 1 1 0 0 1 1 2 2 2 2 2 2 2 2 2
4 6 4 5 4 4 2 2 8 6 5 6 6 7 7 6 7 6 7 7 7 6 6 6 5 4 4 5 4 4 5 4 4 3 3 2 1 1 2 1 2 2 2 2 2 2 2 2 2
2 7 7 4 4 4 2 4 8 4 3 3 4 4 5 5 6 7 8 8 7 7 6 6 6 5 5 5 4 4 4 3 3 3 3 3 3 2 2 2 2 2 2 2 2 2 2 2 2
4 2 5 7 2 0 4 6 8 2 3 1 1 2 4 6 6 7 7 7 7 7 8 8 7 6 5 5 4 3 3 3 3 3 3 2 2 2 2 2 2 2 2 2 2 2 2 2 2
4 7 5 6 5 2 4 4 5 5 4 2 1 3 3 4 5 5 6 6 6 7 6 6 6 6 5 4 4 4 3 3 3 2 2 2 2 2 2 2 2 2 2 2 2 2 2 2 2
3 4 5 4 5 6 3 7 6 7 5 4 5 4 3 4 5 5 5 5 5 5 5 5 5 4 4 4 3 3 3 3 3 3 3 3 2 2 3 2 2 2 2 2 2 2 2 2 2
4 5 7 5 3 4 4 9 5 4 4 4 4 3 2 3 4 5 5 4 4 4 4 5 5 5 5 4 3 3 2 2 3 3 3 3 3 3 3 2 2 2 2 2 3 3 3 3 3
Wind_Direction
168 157 158 154 52 46 7 335 54 47 44 39 59 73 83 68 70 121 314 77 87 84 87 112 119 124 121 118 116 115 114 116 117 116 117 120 126 132 136 139 141 140 138 135 133 134 132 132 130
156 163 184 54 71 52 335 327 72 93 136 134 75 69 69 59 54 87 53 77 89 93 88 114 125 125 121 119 118 118 118 119 119 118 119 121 123 128 132 136 138 137 135 132 134 137 135 134 131
176 190 80 61 74 141 228 305 113 105 116 85 67 55 70 68 83 99 120 107 83 85 89 119 125 123 119 118 118 120 120 120 120 121 122 123 125 126 128 130 132 133 134 133 134 137 137 135 132
170 83 54 58 28 247 192 169 129 117 71 52 80 61 54 46 105 122 107 96 87 79 93 126 128 126 123 122 122 122 120 120 119 121 123 125 126 128 129 133 135 135 134 136 135 135 136 135 136
77 70 50 33 343 336 99 136 133 101 69 60 80 81 41 21 84 102 99 94 92 74 73 128 135 133 129 125 125 124 120 120 120 123 125 126 128 129 133 136 135 135 134 135 136 135 136 140 144
51 61 61 18 343 -0 62 110 103 91 95 93 89 90 47 60 90 104 94 88 83 74 57 70 126 137 134 133 132 128 123 119 121 125 127 128 130 133 135 136 135 135 133 134 137 140 142 144 145
85 78 80 350 329 341 146 104 112 118 114 114 113 95 76 85 100 100 85 75 65 56 50 23 34 134 139 136 132 129 122 120 120 123 126 126 128 132 132 133 136 136 134 138 142 142 143 144 143
128 93 47 343 208 265 142 104 109 117 111 109 104 127 169 176 121 92 79 66 54 44 34 26 34 76 106 122 131 126 119 114 113 119 120 116 117 120 126 134 139 137 139 144 144 144 143 144 141
113 70 288 221 195 219 148 119 112 87 99 83 75 120 140 131 119 102 85 64 48 46 25 29 37 54 78 98 114 111 108 97 94 99 103 95 80 79 103 125 134 137 138 139 141 144 144 141 133
101 125 229 217 189 173 151 132 139 108 95 83 77 87 114 127 128 125 123 121 108 45 23 32 34 47 66 90 82 72 76 69 63 68 76 73 73 74 86 106 125 131 133 132 136 141 138 121 104
162 201 241 241 175 144 133 119 115 126 154 180 151 140 137 138 137 140 144 148 163 149 77 56 59 60 71 77 88 76 68 66 62 63 67 73 69 72 66 68 84 91 100 90 98 90 89 96 98
195 247 224 236 135 127 139 127 115 151 185 150 143 143 146 151 155 161 160 159 144 128 130 99 92 82 77 79 82 82 74 69 69 66 69 77 75 70 74 74 68 68 73 85 76 80 85 89 94
206 286 265 160 109 120 107 105 117 97 114 120 128 139 152 159 163 167 160 152 141 145 144 122 118 116 105 92 89 93 85 82 82 75 73 91 93 88 81 70 70 71 78 92 93 95 96 94 92
230 49 12 85 100 114 111 92 93 122 127 130 139 152 165 168 166 158 158 167 171 174 167 138 121 120 108 103 101 94 98 96 87 89 99 107 117 117 102 81 73 75 80 86 97 107 109 102 102
49 46 28 36 86 118 107 53 135 147 138 142 154 163 170 175 170 175 178 179 179 174 164 151 145 117 109 112 117 104 105 102 95 95 101 115 122 129 126 107 90 85 90 95 94 88 87 93 92
38 48 17 308 102 117 113 222 206 149 147 157 168 174 178 186 188 187 179 175 170 158 158 163 152 129 126 122 112 91 97 101 87 71 81 118 136 143 134 130 141 118 107 107 112 104 89 73 71
30 25 295 300 174 132 128 214 189 156 158 172 181 182 183 192 201 196 185 176 171 169 166 158 138 137 142 126 101 85 82 92 83 61 55 69 116 137 135 142 146 122 111 114 137 110 115 109 80
243 257 275 267 239 128 143 217 175 165 171 185 189 188 189 201 213 198 188 178 168 164 166 160 144 139 127 112 90 73 65 43 38 39 15 73 90 119 132 139 140 125 113 101 109 113 98 110 107
180 193 263 276 232 139 174 200 192 177 184 198 199 196 199 210 212 187 181 174 161 159 167 174 160 153 135 121 123 115 116 33 333 249 169 131 125 129 135 135 132 131 130 147 133 122 113 103 106
172 200 283 314 22 127 129 298 226 191 202 203 200 199 201 201 196 191 182 177 173 176 180 182 181 171 164 156 148 145 141 163 195 302 51 143 168 168 161 149 157 144 135 136 135 130 118 114 120
232 201 227 235 35 50 79 345 303 239 209 207 212 204 200 199 198 195 189 188 183 188 189 190 190 183 177 162 126 96 68 38 24 7 341 324 208 186 172 165 162 160 160 173 175 159 162 182 167
268 237 191 149 90 344 75 279 287 253 239 221 221 211 209 206 197 194 194 193 197 199 191 186 185 186 181 165 155 156 164 192 227 221 255 334 332 201 174 162 167 173 173 180 184 169 177 173 191
214 139 108 106 117 55 19 132 288 299 249 239 224 217 214 204 197 196 197 198 199 193 187 180 175 187 182 173 172 170 182 200 210 98 88 353 342 92 140 149 156 182 188 185 180 169 176 179 186
141 69 54 52 69 30 268 167 276 237 225 241 223 217 213 205 199 196 190 187 191 182 177 173 174 191 184 181 180 181 189 188 183 197 202 232 256 273 203 180 179 186 193 194 191 187 186 191 192
84 86 34 6 18 257 278 207 251 249 230 223 216 212 208 200 194 190 185 187 187 179 179 176 176 193 194 189 192 193 194 190 196 204 205 208 219 235 243 213 199 201 204 197 180 181 199 194 196
164 137 155 188 215 274 315 239 257 268 264 238 214 198 187 187 192 196 196 192 188 182 178 178 184 197 195 195 200 193 193 194 206 209 204 209 217 229 233 227 225 219 211 202 183 185 208 194 208
137 158 158 130 143 291 286 288 301 313 352 15 143 157 183 191 193 196 192 187 182 181 185 186 188 197 199 202 197 194 196 200 210 210 205 213 220 227 221 221 219 224 213 201 186 194 211 207 220
121 141 102 115 142 239 296 281 260 284 296 308 234 211 208 192 187 187 187 189 186 185 185 182 188 197 200 199 201 205 203 206 205 192 204 218 227 225 209 214 210 215 215 195 186 202 209 200 229
96 91 101 109 143 153 234 268 232 224 230 229 232 226 210 200 194 190 189 188 181 173 173 178 184 187 195 202 204 206 203 198 194 199 211 215 222 216 214 215 207 212 216 209 196 214 211 213 233
148 157 146 148 199 169 177 262 274 229 226 217 226 223 211 197 192 186 179 168 163 172 174 179 185 187 194 186 179 198 206 194 198 209 216 212 217 220 212 205 206 215 223 214 205 218 221 217 226